Weather History for Superior, WI

Change the Weather History Date:

Saturday, February 11, 2012

  Actual Average Record
Temperature  
Mean Temperature 8 °F -  
Max Temperature 17 °F 23 °F 16 °F (2014)
Min Temperature -2 °F 4 °F -18 °F (2014)
Degree Days  
Heating Degree Days 58    
Moisture  
Dew Point -12 °F    
Average Humidity 41    
Maximum Humidity 55    
Minimum Humidity 30    
Precipitation  
Precipitation 0.00 in - - ()
Sea Level Pressure  
Sea Level Pressure 30.45 in    
Wind  
Wind Speed 11 mph (WNW)    
Max Wind Speed 20 mph    
Max Gust Speed 26 mph    
Visibility 10 miles    
Events      
Averages and records for this station are not official NWS values.
T = Trace of Precipitation, MM = Missing Value Source: NWS Daily Summary

Daily Weather History Graph

Daily Weather History Graph

Search for Another Location

Airport:

Trip Planner

Search our weather history database for the weather conditions in past years. The results will help you decide how hot, cold, wet, or windy it might be!

Date:

Astronomy

Feb. 11, 2012 Rise Set
Actual Time 7:19 AM CST 5:26 PM CST
Civil Twilight 6:47 AM CST 5:58 PM CST
Nautical Twilight 6:12 AM CST 6:33 PM CST
Astronomical Twilight 5:37 AM CST 7:08 PM CST
Moon 10:38 PM CST (2/11) 8:41 AM CST (2/11)
Length of Visible Light 11h 10m
Length of Day
10h 07m
Waning Gibbous, 82% of the Moon is Illuminated
Feb 11
Waning Gibbous
Feb 14
Last Quarter
Feb 21
New
Feb 29
First Quarter
Mar 8
Full

Hourly Weather History & Observations

Time (CST) Temp. Windchill Dew Point Humidity Pressure Visibility Wind Dir Wind Speed Gust Speed Precip Events Conditions
12:15 AM 6.8 °F -5.9 °F -16.6 °F 34% 30.46 in 10.0 mi NNW 8.1 mph - N/A   Mostly Cloudy
12:35 AM 6.8 °F -3.5 °F -18.4 °F 31% 30.45 in 10.0 mi NW 5.8 mph 9.2 mph N/A   Scattered Clouds
12:55 AM 5.0 °F -6.9 °F -18.4 °F 33% 30.45 in 10.0 mi NW 6.9 mph - N/A   Clear
1:15 AM 5.0 °F -9.1 °F -18.4 °F 33% 30.46 in 10.0 mi NW 9.2 mph - N/A   Clear
1:35 AM 5.0 °F -8.1 °F -18.4 °F 33% 30.46 in 10.0 mi NW 8.1 mph - N/A   Mostly Cloudy
1:55 AM 3.2 °F -11.3 °F -16.6 °F 39% 30.47 in 10.0 mi NW 9.2 mph - N/A   Mostly Cloudy
2:15 AM 3.2 °F -11.3 °F -16.6 °F 39% 30.47 in 10.0 mi WNW 9.2 mph - N/A   Scattered Clouds
2:35 AM 3.2 °F -10.3 °F -16.6 °F 39% 30.47 in 10.0 mi WNW 8.1 mph - N/A   Clear
2:55 AM 1.4 °F -14.5 °F -14.8 °F 47% 30.47 in 10.0 mi WNW 10.4 mph - N/A   Clear
3:15 AM 1.4 °F -14.5 °F -14.8 °F 47% 30.46 in 10.0 mi NW 10.4 mph - N/A   Clear
3:35 AM -0.4 °F -17.6 °F -14.8 °F 51% 30.47 in 10.0 mi WNW 11.5 mph - N/A   Clear
3:55 AM -0.4 °F -15.7 °F -14.8 °F 51% 30.47 in 10.0 mi WNW 9.2 mph - N/A   Clear
4:15 AM -0.4 °F -14.7 °F -14.8 °F 51% 30.48 in 10.0 mi WNW 8.1 mph - N/A   Clear
4:35 AM -0.4 °F -12.0 °F -14.8 °F 51% 30.48 in 10.0 mi WNW 5.8 mph - N/A   Clear
4:55 AM -0.4 °F -15.7 °F -14.8 °F 51% 30.48 in 10.0 mi WNW 9.2 mph - N/A   Clear
5:15 AM -0.4 °F -15.7 °F -14.8 °F 51% 30.48 in 10.0 mi West 9.2 mph - N/A   Clear
5:35 AM -2.2 °F -18.0 °F -14.8 °F 55% 30.47 in 10.0 mi West 9.2 mph - N/A   Clear
5:55 AM -2.2 °F -15.6 °F -14.8 °F 55% 30.48 in 10.0 mi West 6.9 mph - N/A   Clear
6:15 AM -2.2 °F -14.2 °F -14.8 °F 55% 30.48 in 10.0 mi West 5.8 mph - N/A   Clear
6:35 AM -2.2 °F -18.0 °F -14.8 °F 55% 30.49 in 10.0 mi West 9.2 mph 18.4 mph N/A   Clear
6:55 AM -2.2 °F -19.9 °F -14.8 °F 55% 30.50 in 10.0 mi WNW 11.5 mph - N/A   Clear
7:15 AM -2.2 °F -19.9 °F -14.8 °F 55% 30.49 in 10.0 mi WNW 11.5 mph 16.1 mph N/A   Clear
7:35 AM -2.2 °F -19.9 °F -14.8 °F 55% 30.50 in 10.0 mi WNW 11.5 mph - N/A   Clear
7:55 AM -2.2 °F -16.8 °F -14.8 °F 55% 30.50 in 10.0 mi WNW 8.1 mph - N/A   Clear
8:15 AM -0.4 °F -15.7 °F -14.8 °F 51% 30.50 in 10.0 mi West 9.2 mph - N/A   Clear
8:35 AM -0.4 °F -19.2 °F -14.8 °F 51% 30.50 in 10.0 mi WNW 13.8 mph 19.6 mph N/A   Clear
8:55 AM 1.4 °F -19.9 °F -13.0 °F 51% 30.50 in 10.0 mi NW 19.6 mph 26.5 mph N/A   Clear
9:15 AM 1.4 °F -16.1 °F -13.0 °F 51% 30.49 in 10.0 mi WNW 12.7 mph - N/A   Clear
9:35 AM 3.2 °F -15.9 °F -11.2 °F 51% 30.50 in 10.0 mi WNW 16.1 mph 20.7 mph N/A   Clear
9:55 AM 3.2 °F -14.6 °F -11.2 °F 51% 30.50 in 10.0 mi NW 13.8 mph 21.9 mph N/A   Clear
10:15 AM 6.8 °F -11.8 °F -11.2 °F 44% 30.50 in 10.0 mi NW 17.3 mph 20.7 mph N/A   Clear
10:35 AM 6.8 °F -11.3 °F -13.0 °F 40% 30.50 in 10.0 mi WNW 16.1 mph 20.7 mph N/A   Clear
10:55 AM 8.6 °F -8.3 °F -13.0 °F 37% 30.50 in 10.0 mi WNW 15.0 mph 23.0 mph N/A   Clear
11:15 AM 8.6 °F -8.9 °F -14.8 °F 34% 30.49 in 10.0 mi WNW 16.1 mph 23.0 mph N/A   Clear
11:35 AM 10.4 °F -8.2 °F -13.0 °F 34% 30.48 in 10.0 mi WNW 19.6 mph 23.0 mph N/A   Clear
11:55 AM 10.4 °F -6.0 °F -13.0 °F 34% 30.48 in 10.0 mi WNW 15.0 mph 23.0 mph N/A   Clear
12:15 PM 12.2 °F -5.8 °F -11.2 °F 34% 30.47 in 10.0 mi WNW 19.6 mph 25.3 mph N/A   Clear
12:35 PM 12.2 °F -4.3 °F -11.2 °F 34% 30.45 in 10.0 mi NW 16.1 mph 25.3 mph N/A   Clear
12:55 PM 14.0 °F -0.8 °F -9.4 °F 35% 30.44 in 10.0 mi NW 13.8 mph 24.2 mph N/A   Clear
1:15 PM 15.8 °F 0.9 °F -9.4 °F 32% 30.44 in 10.0 mi West 15.0 mph - N/A   Clear
1:35 PM 15.8 °F -0.6 °F -9.4 °F 32% 30.44 in 10.0 mi West 18.4 mph - N/A   Clear
1:55 PM 15.8 °F 1.4 °F -9.4 °F 32% 30.44 in 10.0 mi WNW 13.8 mph 20.7 mph N/A   Clear
2:15 PM 15.8 °F -0.2 °F -9.4 °F 32% 30.43 in 10.0 mi WNW 17.3 mph 20.7 mph N/A   Clear
2:35 PM 17.6 °F 3.7 °F -9.4 °F 30% 30.43 in 10.0 mi West 13.8 mph - N/A   Clear
2:55 PM 17.6 °F 3.2 °F -9.4 °F 30% 30.43 in 10.0 mi West 15.0 mph - N/A   Clear
3:15 PM 17.6 °F 2.2 °F -9.4 °F 30% 30.43 in 10.0 mi WNW 17.3 mph 25.3 mph N/A   Clear
3:35 PM 17.6 °F 2.7 °F -9.4 °F 30% 30.43 in 10.0 mi WNW 16.1 mph - N/A   Clear
3:55 PM 17.6 °F 2.7 °F -9.4 °F 30% 30.42 in 10.0 mi West 16.1 mph 20.7 mph N/A   Clear
4:15 PM 15.8 °F -0.6 °F -9.4 °F 32% 30.41 in 10.0 mi West 18.4 mph 24.2 mph N/A   Clear
4:35 PM 15.8 °F 1.4 °F -7.6 °F 35% 30.41 in 10.0 mi WNW 13.8 mph 18.4 mph N/A   Clear
4:55 PM 15.8 °F 4.2 °F -7.6 °F 35% 30.42 in 10.0 mi WNW 9.2 mph - N/A   Clear
5:15 PM 15.8 °F 0.9 °F -7.6 °F 35% 30.41 in 10.0 mi West 15.0 mph 18.4 mph N/A   Clear
5:35 PM 15.8 °F 2.1 °F -5.8 °F 38% 30.42 in 10.0 mi West 12.7 mph 18.4 mph N/A   Clear
5:55 PM 14.0 °F -0.2 °F -5.8 °F 41% 30.42 in 10.0 mi West 12.7 mph 16.1 mph N/A   Clear
6:15 PM 14.0 °F 2.0 °F -5.8 °F 41% 30.42 in 10.0 mi West 9.2 mph 20.7 mph N/A   Clear
6:35 PM 14.0 °F 2.0 °F -5.8 °F 41% 30.41 in 10.0 mi West 9.2 mph - N/A   Clear
6:55 PM 12.2 °F -1.0 °F -5.8 °F 45% 30.41 in 10.0 mi West 10.4 mph - N/A   Clear
7:15 PM 12.2 °F 0.7 °F -5.8 °F 45% 30.41 in 10.0 mi West 8.1 mph - N/A   Clear
7:35 PM 12.2 °F -3.1 °F -5.8 °F 45% 30.41 in 10.0 mi West 13.8 mph 19.6 mph N/A   Clear
7:55 PM 12.2 °F 0.7 °F -5.8 °F 45% 30.41 in 10.0 mi West 8.1 mph - N/A   Clear
8:15 PM 12.2 °F -1.8 °F -7.6 °F 41% 30.40 in 10.0 mi West 11.5 mph - N/A   Clear
8:35 PM 10.4 °F -4.8 °F -7.6 °F 44% 30.40 in 10.0 mi West 12.7 mph 16.1 mph N/A   Clear
8:55 PM 10.4 °F -5.4 °F -7.6 °F 44% 30.40 in 10.0 mi West 13.8 mph 18.4 mph N/A   Clear
9:15 PM 10.4 °F -6.0 °F -7.6 °F 44% 30.39 in 10.0 mi West 15.0 mph 19.6 mph N/A   Clear
9:35 PM 10.4 °F -7.2 °F -7.6 °F 44% 30.39 in 10.0 mi West 17.3 mph 20.7 mph N/A   Clear
9:55 PM 10.4 °F -5.4 °F -7.6 °F 44% 30.38 in 10.0 mi West 13.8 mph 17.3 mph N/A   Clear
10:15 PM 10.4 °F -7.7 °F -7.6 °F 44% 30.37 in 10.0 mi West 18.4 mph 23.0 mph N/A   Clear
10:35 PM 10.4 °F -6.0 °F -7.6 °F 44% 30.37 in 10.0 mi West 15.0 mph 19.6 mph N/A   Clear
10:55 PM 10.4 °F -5.4 °F -7.6 °F 44% 30.37 in 10.0 mi West 13.8 mph - N/A   Clear
11:15 PM 8.6 °F -7.0 °F -7.6 °F 48% 30.37 in 10.0 mi West 12.7 mph 19.6 mph N/A   Clear
11:35 PM 8.6 °F -5.5 °F -7.6 °F 48% 30.37 in 10.0 mi West 10.4 mph 20.7 mph N/A   Clear
11:55 PM 8.6 °F -7.0 °F -9.4 °F 44% 30.37 in 10.0 mi West 12.7 mph 18.4 mph N/A   Clear